Location: Willingham
(52.3167°N, 0.0667°E)
Time: 21:46:01
(UTC+00:00)

USA-17 - Pass Details

Date: 19 May 2025
Orbit: 394 x 1604 km, 63.3° (Epoch: 18 June)

Event Time Altitude Azimuth Distance (km) Brightness Sun altitude
Rises 23:37:28 0° 314° (NW) 2,342 8.8 -17.6°
Reaches altitude 10° 23:39:31 10° 316° (NW) 1,450 7.7 -17.6°
Maximum altitude 23:42:36 78° 43° (NE) 417 4.2 -17.6°
Enters shadow 23:43:29 44° 121° (ESE) 580 4.6 -17.6°
